Hourly Weather Roundup
Issued by NWS Central Illinois

Home | Current Version | Previous Version | Text Only | Print | Product List | Glossary On
Versions: 1 2 3 4 5 6 7 8 9 10 11 12 13 14 15 16 17 18 19 20 21 22 23 24 25 26 27 28 29 30 31 32 33 34 35 36 37 38 39 40 41 42 43 44 45 46 47 48 49 50
000
NZUS43 KILX 220110
HWRILX

Area Weather Roundup
National Weather Service Lincoln IL
800 PM CDT SAT APR 21 2018

NOTE:  "FAIR" indicates few or no clouds below 12,000 feet, with
       no sigificant weather and/or obstructions to visibility.


CITY           SKY/WX    TMP DP  RH WIND       PRES   REMARKS
Bloomington    MOCLDY    53  29  39 E17       30.30R
Champaign      MOCLDY    55  30  38 E14       30.28S
Danville       FAIR      54  29  39 E9        30.28S
Decatur        FAIR      55  30  38 E13       30.27R
Effingham      FAIR      59  34  39 E7        30.29R
Flora          FAIR      62  34  35 CALM      30.26R
Galesburg      FAIR      58  32  37 E7        30.31R
Jacksonville   CLOUDY    56  29  36 NE13      30.26R
Lacon          FAIR      52  31  45 NE8       30.32R
Lawrenceville  FAIR      60  29  30 NE15      30.27R
Litchfield     CLOUDY    56  34  43 E8        30.23F
$$


CITY           SKY/WX    TMP DP  RH WIND       PRES   REMARKS
Lincoln        FAIR      55  32  41 CALM      30.30R
Macomb         CLOUDY    53  31  43 E9        30.31R
Mattoon        MOCLDY    56  32  40 E13       30.27R
Mt Carmel AP   FAIR      59  32  35 NE13      30.25R
Olney-Noble AP FAIR      59  29  31 NE6       30.27R
Paris AP       FAIR      55  32  42 E7        30.30R
Peoria         FAIR      55  31  39 E14G21    30.31R
Pontiac        FAIR      52  33  48 E10       30.34R
Rantoul        MOCLDY    56  32  40 E14       30.30R
Robinson       FAIR      57  30  35 E10       30.28R
Springfield    FAIR      58  30  34 E9        30.27R
Taylorville    FAIR      57  29  35 E14       30.27R
$$

...REGIONAL REPORTS...


CITY           SKY/WX    TMP DP  RH WIND       PRES   REMARKS
Chicago O`Hare CLOUDY    48  17  29 E7        30.36S
Kankakee       FAIR      51  32  48 E8        30.35S
La Salle       FAIR      54  32  43 E8        30.34R
Moline         FAIR      55  32  41 E15       30.31S
Mount Sterling CLOUDY    56  28  33 E16       30.25R
Mount Vernon     N/A     59  34  39 NE7       30.23S
Pittsfield     CLOUDY    59  31  34 E5        30.25R
Quincy         CLOUDY    58  28  32 E8        30.25R
Rockford       CLOUDY    52  30  43 NE7       30.37R
$$


CITY           SKY/WX    TMP DP  RH WIND       PRES   REMARKS
Burlington     CLOUDY    56  25  30 E9        30.28R
Cedar Rapids   FAIR      53  33  46 NE14      30.30S
Des Moines     CLOUDY    56  24  29 E8        30.27R
Kirksville     CLOUDY    55  31  39 E10       30.21F
Ottumwa        CLOUDY    54  27  35 E8        30.27R
St Louis       CLOUDY    62  33  33 E12       30.20F
$$


CITY           SKY/WX    TMP DP  RH WIND       PRES   REMARKS
Terre Haute    FAIR      55  29  36 E8        30.30R
Evansville     FAIR      63  32  31 NE6       30.23R
Indianapolis   CLOUDY    56  20  24 E10       30.31S
Lafayette      FAIR      53  27  36 E15       30.32S
Madison        MOCLDY    50  33  52 E3        30.37R
Milwaukee      MOCLDY    45  16  31 S3        30.39R
$$






USA.gov is the U.S. government's official web portal to all federal, state and local government web resources and services.